Location: Feudal
(51.8839°N, 107.6105°W)
Time: 03:52:39
(UTC+00:00)

Envisat - Pass Details

Date: 26 January 2022
Orbit: 764 x 765 km, 98.2° (Epoch: 25 May)

Event Time Altitude Azimuth Distance (km) Brightness Sun altitude
Rises 10:56:51 0° 25° (NNE) 3,244 6.7 -36.9°
Reaches altitude 10° 10:59:45 10° 41° (NE) 2,313 6.1 -36.4°
Maximum altitude 11:03:31 21° 89° (E) 1,691 5.3 -35.9°
Drops below altitude 10° 11:07:16 10° 137° (SE) 2,300 5.7 -35.3°
Sets 11:10:08 0° 154° (SSE) 3,221 6.4 -34.9°
